DW7589 Weather Reports


time (UTC)temp
F
wind
direction
speed
knots
gust
knots
rain 1hr
in
rain 24hr
in
rain mn
in
humidity
%
barometer
mb
20260902222243 104 7 1.7 7.8 0.00 0.00 0.00 31 1010.1
20260902221741 104 21 1.7 4.3 0.00 0.00 0.00 31 1010.2
20260902221241 104 28 3.5 9.6 0.00 0.00 0.00 31 1010.2
20260902220741 104 22 3.5 9.6 0.00 0.00 0.00 31 1010.3
20260902220242 103 20 2.6 9.6 0.00 0.00 0.00 31 1010.4
20260902215241 102 13 3.5 7.8 0.00 0.00 0.00 33 1010.4
20260902214742 103 15 3.5 8.7 0.00 0.00 0.00 32 1010.4
20260902214241 104 23 3.5 9.6 0.00 0.00 0.00 32 1010.4
20260902213741 103 29 2.6 9.6 0.00 0.00 0.00 31 1010.5
20260902213241 102 53 1.7 7.8 0.00 0.00 0.00 32 1010.5
20260902212241 101 18 2.6 10.4 0.00 0.00 0.00 33 1010.6
20260902211743 101 20 3.5 10.4 0.00 0.00 0.00 34 1010.8
20260902211241 101 33 3.5 8.7 0.00 0.00 0.00 33 1010.7
20260902210742 103 20 2.6 8.7 0.00 0.00 0.00 32 1010.7
20260902210241 104 335 1.7 6.1 0.00 0.00 0.00 32 1010.8
20260902205241 103 359 2.6 7.8 0.00 0.00 0.00 31 1011.0
20260902204742 103 16 3.5 10.4 0.00 0.00 0.00 31 1011.1
20260902204242 104 20 2.6 10.4 0.00 0.00 0.00 32 1011.1
20260902203742 104 355 1.7 4.3 0.00 0.00 0.00 33 1011.1
20260902202241 103 3 1.7 7.0 0.00 0.00 0.00 34 1011.4
20260902201742 102 13 3.5 8.7 0.00 0.00 0.00 33 1011.5
20260902200742 103 9 1.7 8.7 0.00 0.00 0.00 33 1011.6
20260902200242 102 347 1.7 4.3 0.00 0.00 0.00 35 1011.6
20260902195742 101 10 2.6 6.1 0.00 0.00 0.00 36 1011.7
20260902194742 100 4 1.7 7.0 0.00 0.00 0.00 38 1011.9
20260902194241 100 2 2.6 7.0 0.00 0.00 0.00 37 1012.0
20260902193742 101 1 2.6 7.0 0.00 0.00 0.00 36 1012.1
20260902193243 102 13 1.7 5.2 0.00 0.00 0.00 34 1012.2
20260902192742 102 50 1.7 6.1 0.00 0.00 0.00 36 1012.2
20260902191742 101 30 2.6 10.4 0.00 0.00 0.00 37 1012.3
20260902191241 102 22 3.5 10.4 0.00 0.00 0.00 36 1012.5
20260902190742 102 34 2.6 8.7 0.00 0.00 0.00 36 1012.5
20260902185741 101 28 3.5 8.7 0.00 0.00 0.00 37 1012.7
20260902185242 100 18 4.3 9.6 0.00 0.00 0.00 36 1012.8
20260902184742 100 22 3.5 9.6 0.00 0.00 0.00 36 1012.9
20260902184242 101 50 1.7 8.7 0.00 0.00 0.00 38 1013.0
20260902183741 100 41 1.7 7.0 0.00 0.00 0.00 38 1013.1
20260902183242 100 39 1.7 7.0 0.00 0.00 0.00 39 1013.2
20260902181742 100 26 2.6 10.4 0.00 0.00 0.00 39 1013.3
20260902181241 99 18 3.5 11.3 0.00 0.00 0.00 40 1013.5
20260902180742 100 17 2.6 11.3 0.00 0.00 0.00 39 1013.6
20260902180242 100 2 2.6 8.7 0.00 0.00 0.00 40 1013.7
20260902175742 100 8 2.6 8.7 0.00 0.00 0.00 39 1013.8
20260902175241 100 13 2.6 6.1 0.00 0.00 0.00 40 1013.9
20260902174742 99 22 2.6 8.7 0.00 0.00 0.00 42 1014.0
20260902174242 99 24 2.6 8.7 0.00 0.00 0.00 42 1014.2
20260902173742 98 13 2.6 8.7 0.00 0.00 0.00 42 1014.2
20260902173242 97 9 2.6 7.8 0.00 0.00 0.00 42 1014.4
20260902172742 97 305 2.6 6.1 0.00 0.00 0.00 44 1014.5
20260902172241 96 250 2.6 7.0 0.00 0.00 0.00 45 1014.6
20260902171742 97 254 2.6 7.0 0.00 0.00 0.00 44 1014.7
20260902171241 96 325 2.6 7.0 0.00 0.00 0.00 46 1014.9
20260902170241 96 161 1.7 3.5 0.00 0.00 0.00 47 1014.9
20260902165742 96 345 1.7 7.8 0.00 0.00 0.00 47 1015.0
20260902165241 95 14 2.6 7.8 0.00 0.00 0.00 48 1015.1
20260902164742 95 33 2.6 7.0 0.00 0.00 0.00 47 1015.1
20260902163241 94 135 1.7 4.3 0.00 0.00 0.00 49 1015.3
20260902162743 93 212 1.7 4.3 0.00 0.00 0.00 51 1015.4
20260902162242 93 263 1.7 3.5 0.00 0.00 0.00 50 1015.4
20260902161742 94 275 1.7 3.5 0.00 0.00 0.00 50 1015.4
20260902161243 94 25 1.7 4.3 0.00 0.00 0.00 51 1015.5
20260902160742 93 25 1.7 4.3 0.00 0.00 0.00 50 1015.4
20260902160242 93 14 1.7 4.3 0.00 0.00 0.00 51 1015.5
20260902155741 92 272 1.7 3.5 0.00 0.00 0.00 52 1015.5
20260902155242 92 240 1.7 3.5 0.00 0.00 0.00 54 1015.5
20260902154742 92 255 0.9 3.5 0.00 0.00 0.00 53 1015.4
20260902154242 92 347 0.9 3.5 0.00 0.00 0.00 53 1015.4
20260902153742 91 76 0.9 3.5 0.00 0.00 0.00 54 1015.5
20260902153241 90 166 0.9 2.6 0.00 0.00 0.00 55 1015.5
20260902152742 90 167 0.9 2.6 0.00 0.00 0.00 55 1015.5
20260902152242 90 172 0.9 2.6 0.00 0.00 0.00 56 1015.5
20260902151242 89 135 0.9 3.5 0.00 0.00 0.00 56 1015.5
20260902150741 89 133 0.9 3.5 0.00 0.00 0.00 57 1015.5
20260902150242 88 140 0.9 3.5 0.00 0.00 0.00 58 1015.6
20260902145242 88 124 0.9 2.6 0.00 0.00 0.00 60 1015.6
20260902144741 88 115 0.9 2.6 0.00 0.00 0.00 61 1015.6
20260902142743 86 129 0.9 3.5 0.00 0.00 0.00 63 1015.7
20260902141741 86 101 0.9 2.6 0.00 0.00 0.00 65 1015.7
20260902141242 85 110 0.9 2.6 0.00 0.00 0.00 66 1015.7
20260902140743 84 82 0.9 2.6 0.00 0.00 0.00 67 1015.6
20260902140242 84 81 0.9 2.6 0.00 0.00 0.00 69 1015.5
20260902135742 82 73 0.9 2.6 0.00 0.00 0.00 71 1015.5
20260902135244 82 37 0.9 2.6 0.00 0.00 0.00 73 1015.5
20260902134242 80 0 0.0 1.7 0.00 0.00 0.00 76 1015.4
20260902133742 79 45 0.9 1.7 0.00 0.00 0.00 77 1015.4
20260902133243 78 52 0.9 1.7 0.00 0.00 0.00 78 1015.4
20260902132743 78 78 0.9 2.6 0.00 0.00 0.00 79 1015.4
20260902132242 78 0 0.0 2.6 0.00 0.00 0.00 80 1015.4
20260902131242 77 21 0.9 2.6 0.00 0.00 0.00 80 1015.3
20260902130742 77 30 0.9 2.6 0.00 0.00 0.00 81 1015.3
20260902130242 76 39 0.9 1.7 0.00 0.00 0.00 82 1015.3
20260902125742 76 0 0.0 1.7 0.00 0.00 0.00 82 1015.2
20260902125242 76 0 0.0 0.9 0.00 0.00 0.00 82 1015.2
20260902124742 76 0 0.0 1.7 0.00 0.00 0.00 82 1015.1
20260902124242 76 36 0.9 1.7 0.00 0.00 0.00 82 1015.0
20260902123742 76 28 0.9 1.7 0.00 0.00 0.00 82 1014.9
20260902122744 76 32 0.9 1.7 0.00 0.00 0.00 82 1014.8
20260902121742 76 30 0.9 1.7 0.00 0.00 0.00 82 1014.7
20260902121242 76 21 0.9 1.7 0.00 0.00 0.00 82 1014.8
20260902120742 76 14 0.9 1.7 0.00 0.00 0.00 82 1014.7
20260902120242 76 0 0.0 1.7 0.00 0.00 0.00 82 1014.8
20260902115742 76 0 0.0 1.7 0.00 0.00 0.00 82 1014.8
20260902115242 76 0 0.0 1.7 0.00 0.00 0.00 82 1014.7
20260902114743 76 0 0.0 0.9 0.00 0.00 0.00 82 1014.7
20260902114244 76 0 0.0 1.7 0.00 0.00 0.00 81 1014.6
20260902113742 76 9 0.9 1.7 0.00 0.00 0.00 81 1014.6
20260902113243 76 11 0.9 1.7 0.00 0.00 0.00 81 1014.6
20260902112742 76 0 0.0 1.7 0.00 0.00 0.00 81 1014.6
20260902112242 76 0 0.0 0.9 0.00 0.00 0.00 80 1014.6
20260902110742 76 35 0.9 1.7 0.00 0.00 0.00 80 1014.7
20260902105742 76 0 0.0 1.7 0.00 0.00 0.00 80 1014.7
20260902105242 77 0 0.0 0.9 0.00 0.00 0.00 80 1014.8
20260902104743 77 0 0.0 0.9 0.00 0.00 0.00 79 1014.8
20260902104242 77 0 0.0 0.9 0.00 0.00 0.00 79 1014.7
20260902103742 77 0 0.0 0.0 0.00 0.00 0.00 79 1014.7
20260902103242 77 0 0.0 0.9 0.00 0.00 0.00 79 1014.7
20260902102742 77 0 0.0 0.9 0.00 0.00 0.00 79 1014.7
20260902102242 77 0 0.0 1.7 0.00 0.00 0.00 79 1014.7
20260902101742 77 0 0.0 1.7 0.00 0.00 0.00 79 1014.6
20260902101242 77 0 0.0 1.7 0.00 0.00 0.00 78 1014.6
20260902100743 77 0 0.0 0.0 0.00 0.00 0.00 78 1014.5
20260902100242 77 0 0.0 0.0 0.00 0.00 0.00 77 1014.4
20260902095742 78 0 0.0 0.0 0.00 0.00 0.00 77 1014.5
20260902095243 78 0 0.0 0.0 0.00 0.00 0.00 76 1014.5
20260902094242 78 0 0.0 0.0 0.00 0.00 0.00 76 1014.5
20260902093742 79 0 0.0 0.0 0.00 0.00 0.00 75 1014.5
20260902093244 79 0 0.0 0.0 0.00 0.00 0.00 74 1014.5
20260902092243 80 0 0.0 0.9 0.00 0.00 0.00 73 1014.5
20260902091742 80 0 0.0 0.9 0.00 0.00 0.00 73 1014.6
20260902091242 80 0 0.0 0.9 0.00 0.00 0.00 72 1014.6
20260902090742 80 0 0.0 0.9 0.00 0.00 0.00 72 1014.6
20260902090243 80 0 0.0 0.9 0.00 0.00 0.00 72 1014.6
20260902085742 80 0 0.0 1.7 0.00 0.00 0.00 72 1014.5
20260902085243 80 0 0.0 1.7 0.00 0.00 0.00 71 1014.6
20260902084742 80 0 0.0 0.9 0.00 0.00 0.00 71 1014.5
20260902083742 81 0 0.0 0.9 0.00 0.00 0.00 71 1014.6
20260902083243 81 0 0.0 0.9 0.00 0.00 0.00 71 1014.6
20260902082743 81 0 0.0 0.9 0.00 0.00 0.00 71 1014.6
20260902082242 81 0 0.0 0.9 0.00 0.00 0.00 70 1014.6
20260902081742 81 0 0.0 1.7 0.00 0.00 0.00 70 1014.7
20260902081243 81 0 0.0 1.7 0.00 0.00 0.00 70 1014.7
20260902080742 81 0 0.0 0.9 0.00 0.00 0.00 70 1014.7
20260902075243 81 0 0.0 0.0 0.00 0.00 0.00 70 1014.8
20260902074742 81 0 0.0 0.9 0.00 0.00 0.00 69 1014.8
20260902074243 81 0 0.0 0.9 0.00 0.00 0.00 69 1014.9
20260902073742 81 0 0.0 0.9 0.00 0.00 0.00 69 1014.9
20260902072742 81 0 0.0 0.9 0.00 0.00 0.00 69 1015.0
20260902072242 81 0 0.0 0.9 0.00 0.00 0.00 69 1015.0
20260902071742 82 0 0.0 0.9 0.00 0.00 0.00 68 1015.0
20260902071243 82 0 0.0 0.9 0.00 0.00 0.00 68 1015.0
20260902070743 82 0 0.0 1.7 0.00 0.00 0.00 68 1015.0
20260902070244 82 164 0.9 1.7 0.00 0.00 0.00 68 1015.0
20260902065743 82 164 0.9 1.7 0.00 0.00 0.00 68 1015.1
20260902064743 82 0 0.0 1.7 0.00 0.00 0.00 67 1015.0
20260902064242 82 0 0.0 1.7 0.00 0.00 0.00 67 1015.1
20260902063742 82 0 0.0 0.9 0.00 0.00 0.00 67 1015.1
20260902063242 82 0 0.0 0.9 0.00 0.00 0.00 67 1015.1
20260902062744 82 0 0.0 0.9 0.00 0.00 0.00 67 1015.1
20260902062243 82 0 0.0 0.9 0.00 0.00 0.00 67 1015.1
20260902061742 82 0 0.0 0.9 0.00 0.00 0.00 67 1015.1
20260902061243 83 0 0.0 0.9 0.00 0.00 0.00 66 1015.1
20260902060743 83 0 0.0 0.9 0.00 0.00 0.00 66 1015.1
20260902060243 83 164 0.9 1.7 0.00 0.00 0.00 65 1015.1
20260902054742 84 157 0.9 1.7 0.00 0.00 0.00 64 1014.9
20260902053742 84 170 0.9 3.5 0.00 0.00 0.00 64 1014.8
20260902053242 84 167 0.9 2.6 0.00 0.00 0.00 64 1014.8
20260902052242 84 156 0.9 2.6 0.00 0.00 0.00 64 1014.7
20260902051743 84 162 0.9 1.7 0.00 0.00 0.00 64 1014.7
20260902050742 84 153 0.9 3.5 0.00 0.00 0.00 65 1014.9
20260902050243 84 154 0.9 3.5 0.00 0.00 0.00 65 1014.8
20260902045743 84 153 1.7 4.3 0.00 0.00 0.00 64 1014.8
20260902045242 85 153 2.6 4.3 0.00 0.00 0.00 64 1014.7
20260902044742 85 154 1.7 4.3 0.00 0.00 0.00 64 1014.7
20260902042743 85 145 1.7 3.5 0.00 0.00 0.00 63 1014.7
20260902041743 86 150 1.7 4.3 0.00 0.00 0.00 62 1014.7
20260902040742 86 150 2.6 6.1 0.00 0.00 0.00 61 1014.5
20260902040243 86 152 2.6 6.1 0.00 0.00 0.00 60 1014.5
20260902035743 86 153 2.6 5.2 0.00 0.00 0.00 60 1014.5
20260902035243 87 150 2.6 6.1 0.00 0.00 0.00 60 1014.6
20260902034743 87 151 3.5 6.1 0.00 0.00 0.00 59 1014.5
20260902034243 87 153 3.5 7.0 0.00 0.00 0.00 58 1014.4
20260902033743 88 150 3.5 7.0 0.00 0.00 0.00 57 1014.3
20260902032742 88 139 2.6 4.3 0.00 0.00 0.00 56 1014.2
20260902032242 88 144 2.6 4.3 0.00 0.00 0.00 55 1014.2
20260902031742 89 149 2.6 5.2 0.00 0.00 0.00 55 1014.1
20260902031242 89 144 2.6 5.2 0.00 0.00 0.00 54 1013.9
20260902030243 88 131 1.7 2.6 0.00 0.00 0.00 53 1013.7
20260902025742 88 113 0.9 2.6 0.00 0.00 0.00 53 1013.6
20260902025242 88 102 0.9 1.7 0.00 0.00 0.00 53 1013.4
20260902024743 87 100 0.9 0.9 0.00 0.00 0.00 54 1013.5
20260902024243 87 0 0.0 0.9 0.00 0.00 0.00 54 1013.4
20260902023742 87 0 0.0 0.9 0.00 0.00 0.00 54 1013.3
20260902022743 88 0 0.0 0.0 0.00 0.00 0.00 53 1013.1
20260902022244 88 0 0.0 0.0 0.00 0.00 0.00 53 1013.0
20260902021742 88 0 0.0 0.0 0.00 0.00 0.00 52 1012.9
20260902021243 89 0 0.0 0.0 0.00 0.00 0.00 52 1012.9
20260902020243 89 0 0.0 0.0 0.00 0.00 0.00 51 1012.7
20260902015742 90 0 0.0 0.9 0.00 0.00 0.00 51 1012.7
20260902015243 90 0 0.0 0.9 0.00 0.00 0.00 50 1012.6
20260902014743 90 0 0.0 0.9 0.00 0.00 0.00 49 1012.6
20260902014243 91 0 0.0 0.9 0.00 0.00 0.00 49 1012.5
20260902013744 91 0 0.0 1.7 0.00 0.00 0.00 49 1012.4
20260902013243 91 0 0.0 1.7 0.00 0.00 0.00 48 1012.4
20260902012743 92 0 0.0 0.0 0.00 0.00 0.00 48 1012.3
20260902012243 92 0 0.0 0.0 0.00 0.00 0.00 47 1012.4
20260902011743 92 0 0.0 0.9 0.00 0.00 0.00 47 1012.3
20260902011242 93 0 0.0 1.7 0.00 0.00 0.00 46 1012.3
20260902010743 93 0 0.0 1.7 0.00 0.00 0.00 46 1012.3
20260902010242 93 0 0.0 1.7 0.00 0.00 0.00 45 1012.2
20260902005743 94 130 0.9 1.7 0.00 0.00 0.00 44 1012.2
20260902005243 94 137 0.9 1.7 0.00 0.00 0.00 44 1012.2
20260902004744 94 139 0.9 1.7 0.00 0.00 0.00 43 1012.2
20260902003743 95 132 0.9 1.7 0.00 0.00 0.00 43 1012.1
20260902003243 95 129 0.9 2.6 0.00 0.00 0.00 42 1012.1
20260902002743 95 128 0.9 2.6 0.00 0.00 0.00 42 1012.2
20260902002242 96 120 0.9 3.5 0.00 0.00 0.00 42 1012.1
20260902001743 96 123 0.9 3.5 0.00 0.00 0.00 42 1012.2
20260902001243 96 131 0.9 3.5 0.00 0.00 0.00 42 1012.2
20260902000744 96 136 1.7 5.2 0.00 0.00 0.00 41 1012.3
20260901235743 97 138 1.7 5.2 0.00 0.00 0.00 40 1012.3
20260901235243 97 142 1.7 5.2 0.00 0.00 0.00 40 1012.3
20260901234743 97 140 2.6 4.3 0.00 0.00 0.00 40 1012.4
20260901234243 97 140 2.6 6.1 0.00 0.00 0.00 40 1012.4
20260901233743 97 141 2.6 6.1 0.00 0.00 0.00 40 1012.4
20260901233243 98 139 1.7 5.2 0.00 0.00 0.00 39 1012.4
20260901232743 98 129 1.7 4.3 0.00 0.00 0.00 39 1012.5
20260901231243 97 132 2.6 5.2 0.00 0.00 0.00 38 1012.5
20260901230743 97 133 2.6 4.3 0.00 0.00 0.00 38 1012.5
20260901230243 98 136 1.7 3.5 0.00 0.00 0.00 39 1012.5
20260901225743 98 141 1.7 4.3 0.00 0.00 0.00 38 1012.4
20260901223743 99 132 2.6 4.3 0.00 0.00 0.00 37 1012.6
20260901223243 99 122 1.7 5.2 0.00 0.00 0.00 36 1012.6